Weather History for Dickinson, ND

Change the Weather History Date:

Friday, November 23, 2012

  Actual Average Record
Temperature  
Mean Temperature 19 °F 26 °F  
Max Temperature 30 °F 36 °F 63 °F (1984)
Min Temperature 7 °F 15 °F -15 °F (1996)
Degree Days  
Heating Degree Days 46 39  
Month to date heating degree days 701 776  
Since 1 July heating degree days 1638 1787  
Cooling Degree Days 0 0  
Month to date cooling degree days 0 0  
Year to date cooling degree days 591 419  
Moisture  
Dew Point 11 °F    
Average Humidity 68    
Maximum Humidity 88    
Minimum Humidity 47    
Precipitation  
Precipitation T in 0.01 in 0.33 in (1996)
Month to date precipitation 0.22 0.47  
Year to date precipitation 10.15 15.46  
Sea Level Pressure  
Sea Level Pressure 30.43 in    
Wind  
Wind Speed 9 mph (SW)    
Max Wind Speed 21 mph    
Max Gust Speed 25 mph    
Visibility 10 miles    
Events      
T = Trace of Precipitation, MM = Missing Value Source: NWS Daily Summary

Daily Weather History Graph

Daily Weather History Graph

Search for Another Location

Airport:

Trip Planner

Search our weather history database for the weather conditions in past years. The results will help you decide how hot, cold, wet, or windy it might be!

Date:

Astronomy

Nov. 23, 2012 Rise Set
Actual Time 7:05 AM MST 4:09 PM MST
Civil Twilight 6:32 AM MST 4:43 PM MST
Nautical Twilight 5:54 AM MST 5:20 PM MST
Astronomical Twilight 5:18 AM MST 5:56 PM MST
Moon 1:38 PM MST (11/23) 2:12 AM MST (11/23)
Length of Visible Light 10h 11m
Length of Day
9h 03m
Waxing Gibbous, 80% of the Moon is Illuminated
Nov 23
Waxing Gibbous
Nov 28
Full
Dec 6
Last Quarter
Dec 13
New
Dec 19
First Quarter

Hourly Weather History & Observations

Time (MST) Temp. Windchill Dew Point Humidity Pressure Visibility Wind Dir Wind Speed Gust Speed Precip Events Conditions
12:56 AM 10.9 °F -2.6 °F 7.0 °F 84% 30.58 in 10.0 mi WNW 10.4 mph - N/A   Clear
1:56 AM 10.9 °F -3.4 °F 6.1 °F 81% 30.57 in 10.0 mi WNW 11.5 mph - N/A   Clear
2:56 AM 10.0 °F -2.9 °F 6.1 °F 84% 30.59 in 10.0 mi West 9.2 mph - N/A   Clear
3:56 AM 9.0 °F -2.2 °F 5.0 °F 84% 30.59 in 10.0 mi WNW 6.9 mph - N/A   Clear
4:56 AM 8.1 °F -5.3 °F 5.0 °F 87% 30.59 in 10.0 mi West 9.2 mph - N/A   Clear
5:56 AM 9.0 °F -3.2 °F 5.0 °F 84% 30.59 in 10.0 mi West 8.1 mph - N/A   Clear
6:56 AM 7.0 °F -1.7 °F 3.0 °F 84% 30.59 in 10.0 mi WNW 4.6 mph - N/A   Clear
7:56 AM 10.9 °F 2.9 °F 7.0 °F 84% 30.58 in 10.0 mi West 4.6 mph - N/A   Clear
8:56 AM 14.0 °F 3.9 °F 9.0 °F 80% 30.59 in 10.0 mi West 6.9 mph - N/A   Clear
9:56 AM 18.0 °F 8.7 °F 10.9 °F 74% 30.56 in 10.0 mi WNW 6.9 mph - N/A   Clear
10:56 AM 21.9 °F 14.5 °F 12.0 °F 66% 30.54 in 10.0 mi WNW 5.8 mph - N/A   Clear
11:56 AM 26.1 °F 19.4 °F 12.0 °F 55% 30.48 in 10.0 mi West 5.8 mph - N/A   Clear
12:56 PM 27.0 °F - 12.0 °F 53% 30.45 in 10.0 mi Calm Calm - N/A   Clear
1:56 PM 30.0 °F 25.2 °F 12.9 °F 49% 30.40 in 10.0 mi South 4.6 mph - N/A   Clear
2:56 PM 30.0 °F 24.1 °F 12.9 °F 49% 30.39 in 10.0 mi SSE 5.8 mph - N/A   Clear
3:56 PM 27.0 °F 18.0 °F 14.0 °F 58% 30.38 in 10.0 mi SSE 9.2 mph - N/A   Mostly Cloudy
4:56 PM 27.0 °F 18.0 °F 14.0 °F 58% 30.35 in 10.0 mi SE 9.2 mph - N/A   Overcast
5:56 PM 27.0 °F 16.1 °F 14.0 °F 58% 30.31 in 10.0 mi SE 12.7 mph - N/A   Overcast
6:56 PM 27.0 °F 15.2 °F 15.1 °F 61% 30.30 in 10.0 mi SE 15.0 mph - N/A   Overcast
7:56 PM 27.0 °F 15.2 °F 15.1 °F 61% 30.27 in 10.0 mi SSE 15.0 mph - N/A   Overcast
8:56 PM 26.1 °F 14.5 °F 15.1 °F 63% 30.23 in 10.0 mi SE 13.8 mph - N/A   Mostly Cloudy
9:56 PM 27.0 °F 15.2 °F 15.1 °F 61% 30.17 in 10.0 mi SSE 15.0 mph - N/A   Overcast
10:56 PM 27.0 °F 15.6 °F 15.1 °F 61% 30.15 in 10.0 mi SSE 13.8 mph - N/A   Overcast
11:56 PM 27.0 °F 14.3 °F 16.0 °F 63% 30.09 in 10.0 mi South 17.3 mph - N/A   Overcast